Regional Weather Roundup
Issued by NWS State College, PA

Home | Current Version | Previous Version | Text Only | Print | Product List | Glossary On
Versions: 1 2 3 4 5 6 7 8 9 10 11 12 13 14 15 16 17 18 19 20 21 22 23 24 25 26 27 28 29 30 31 32 33 34 35 36 37 38 39 40 41 42 43 44 45 46 47 48 49 50
000
ASUS41 KCTP 201810
RWRCTP

REGIONAL WEATHER ROUNDUP
NATIONAL WEATHER SERVICE STATE COLLEGE PA
200 PM EDT SUN AUG 20 2017

Note: "fair" indicates few or no clouds below 12,000 feet with no
significant weather and/or obstructions to visibility.

* = STATION THAT DOES NOT REPORT PRECIPITATION /E.G. RAIN...SNOW...ETC/
    THUNDER OR FOG.

PAZ002>004-007>009-013>016-020>023-029>032-201900-
WESTERN PENNSYLVANIA

CITY           SKY/WX    TMP DP  RH WIND       PRES   REMARKS
ERIE           SUNNY     80  60  50 NW9       30.13R
MEADVILLE      SUNNY     79  60  52 SW8       30.17R
FRANKLIN*      SUNNY     79  54  41 CALM      30.18S
NEW CASTLE     FAIR      80  59  48 SW5       30.16F
BEAVER COUNTY  NOT AVBL
BUTLER*        SUNNY     77  59  53 VRB3      30.18S
PITTSBURGH INT MOSUNNY   79  61  53 SE7       30.16S
PITTSBURGH     SUNNY     80  57  45 MISG      30.16S
INDIANA*       SUNNY     77  59  53 VRB5      30.20S
LATROBE        SUNNY     79  55  44 W5          N/A
WASHINGTON CO* SUNNY     79  61  53 SE3       30.17S
$$

PAZ004>006-010>012-017>019-024>028-033>037-041-042-045-046-049>053-201900-
CENTRAL PENNSYLVANIA

CITY           SKY/WX    TMP DP  RH WIND       PRES   REMARKS
BRADFORD       MOSUNNY   77  58  51 N7        30.18S
DUBOIS         MOSUNNY   75  54  47 S6        30.18S
CLEARFIELD     PTSUNNY   77  59  53 NE5       30.18S
JOHNSTOWN      SUNNY     76  52  43 CALM      30.21S
ALTOONA        SUNNY     77  60  55 VRB3      30.19S
STATE COLLEGE  MOSUNNY   79  59  50 CALM      30.16F
WILLIAMSPORT   MOSUNNY   81  62  52 S3        30.11F
SELINSGROVE    SUNNY     81  66  60 N3        30.14F
FT INDIANTOWN  SUNNY     80  61  52 NE3       30.13F
CAPITAL CITY   SUNNY     82  59  45 NW6       30.13F
HARRISBURG     MOSUNNY   82  63  52 NW5       30.12F
YORK           SUNNY     81  62  52 W5        30.15S
$$

PAZ038>040-043-044-047-048-054-055-060>062-067>071-201900-
EASTERN PENNSYLVANIA

CITY           SKY/WX    TMP DP  RH WIND       PRES   REMARKS
SCRANTON       MOSUNNY   78  60  53 NW8       30.14F
MOUNT POCONO     N/A     73  55  53 W13G20    30.16S
ALLENTOWN      SUNNY     81  60  48 NW8       30.12S
QUAKERTOWN*    CLEAR     81  61  50 W7        30.14S
READING        SUNNY     81  62  52 N8        30.12S
LANCASTER      SUNNY     83  61  47 W8        30.14S
COATESVILLE    CLEAR     79  61  53 W9        30.16S
POTTSTOWN      SUNNY     79  61  53 VRB7      30.14S
BLUE BELL      SUNNY     79  63  57 NW7       30.13S
DOYLESTOWN     SUNNY     80  61  52 W6        30.11S
WILLOW GROVE   NOT AVBL
NORTH PHILA    SUNNY     84  61  45 W7        30.12S
PHILADELPHIA   MOSUNNY   83  57  41 W9        30.12R
$$




USA.gov is the U.S. government's official web portal to all federal, state and local government web resources and services.